Simultaneous Nadir Overpasses (SNOs) Predictions

Prediction of SNOs between NOAA-15 and METOP-C Satellite Orbit:

Table of predicted SNOs for the next 14.0 days since TLE Epoch: 1/4/2019
Index Date (NOAA-15) Time (NOAA-15) Lat,Lon (NOAA-15) SZA (NOAA-15 ) Date (METOP-C) Time (METOP-C) Lat,Lon (METOP-C) SZA (METOP-C ) Distance(km) Time Diff (sec)
1 01/09/2019 10:39:07 80.75, 52.27 104.01 01/09/2019 10:37:56 80.73, 52.30 103.97 1.67 71
2 01/09/2019 11:29:42 -80.74,-140.29 76.00 01/09/2019 11:28:37 -80.75,-140.15 76.01 2.44 65
3 01/09/2019 12:20:09 80.73, 27.30 104.00 01/09/2019 12:19:17 80.74, 27.17 103.99 2.87 52
4 01/09/2019 13:10:45 -80.74,-165.61 76.01 01/09/2019 13:09:59 -80.74,-165.63 76.04 0.91 46
5 01/09/2019 14:01:13 80.75, 1.63 103.98 01/09/2019 14:00:39 80.74, 1.69 103.96 2.13 34
6 01/09/2019 14:51:48 -80.75, 169.07 76.02 01/09/2019 14:51:20 -80.75, 169.24 76.02 2.98 28
7 01/09/2019 15:42:15 80.74, -23.34 103.98 01/09/2019 15:42:00 80.75, -23.44 103.98 2.27 15
8 01/09/2019 16:32:51 -80.75, 143.76 76.04 01/09/2019 16:32:42 -80.74, 143.77 76.05 1.07 9
9 01/09/2019 17:23:19 80.76, -49.01 103.96 01/09/2019 17:23:22 80.74, -48.92 103.95 2.65 3
10 01/09/2019 18:13:53 -80.73, 118.79 76.04 01/09/2019 18:14:03 -80.75, 118.64 76.03 3.43 10
11 01/09/2019 19:04:21 80.74, -73.98 103.96 01/09/2019 19:04:43 80.75, -74.05 103.97 1.68 22
12 01/09/2019 19:54:57 -80.76, 93.12 76.06 01/09/2019 19:55:25 -80.75, 93.16 76.06 1.51 28
13 01/09/2019 20:45:24 80.75, -99.30 103.94 01/09/2019 20:46:04 80.77, -99.18 103.98 2.98 40
14 01/09/2019 21:35:59 -80.74, 68.15 76.06 01/09/2019 21:36:46 -80.76, 68.03 76.04 2.81 47
15 01/09/2019 22:26:27 80.75,-124.61 103.93 01/09/2019 22:27:26 80.76,-124.65 103.95 1.10 59
16 01/09/2019 23:17:02 -80.76, 42.48 76.09 01/09/2019 23:18:07 -80.75, 42.55 76.07 2.05 65




NCC Satellite Simultaneous Nadir Overpasses (SNOs) Prediction Service
